Virginia Beach, VA

9:42 AM EDT on September 25, 2016 (GMT -0400)
Oceana Naval Air Station

Weather History for KNTU - December, 2013

Change the Weather History Date:

Thursday, December 12, 2013

  Actual Average Record
Temperature  
Mean Temperature 32 °F -  
Max Temperature 37 °F 52 °F 78 °F (2007)
Min Temperature 26 °F 36 °F 26 °F (2013)
Degree Days  
Heating Degree Days 34    
Moisture  
Dew Point 24 °F    
Average Humidity 68    
Maximum Humidity 81    
Minimum Humidity 52    
Precipitation  
Precipitation 0.00 in - - ()
Sea Level Pressure  
Sea Level Pressure 30.34 in    
Wind  
Wind Speed 8 mph (NNW)    
Max Wind Speed 23 mph    
Max Gust Speed 28 mph    
Visibility 10 miles    
Events      
Averages and records for this station are not official NWS values.
T = Trace of Precipitation, MM = Missing Value Source: NWS Daily Summary

Daily Weather History Graph

Daily Weather History Graph

Search for Another Location

Airport or City:

Trip Planner

Search our weather history database for the weather conditions in past years. The results will help you decide how hot, cold, wet, or windy it might be!

Date:

Astronomy

Dec. 12, 2013 Rise Set
Actual Time 7:07 AM EST 4:48 PM EST
Civil Twilight 6:38 AM EST 5:17 PM EST
Nautical Twilight 6:06 AM EST 5:49 PM EST
Astronomical Twilight 5:34 AM EST 6:21 PM EST
Moon 1:49 PM EST (12/12) 2:33 AM EST (12/12)
Length of Visible Light 10h 38m
Length of Day
9h 40m
Waxing Gibbous, 80% of the Moon is Illuminated
Dec 12
Waxing Gibbous
Dec 17
Full
Dec 25
Last Quarter
Jan 1
New
Jan 7
First Quarter

Hourly Weather History & Observations

Time (EST) Temp. Windchill Dew Point Humidity Pressure Visibility Wind Dir Wind Speed Gust Speed Precip Events Conditions
12:56 AM 35.1 °F 31.0 °F 27.0 °F 72% 30.26 in 10.0 mi WSW 4.6 mph - N/A   Scattered Clouds
1:56 AM 34.0 °F 28.8 °F 27.0 °F 75% 30.25 in 10.0 mi WSW 5.8 mph - N/A   Mostly Cloudy
2:56 AM 33.1 °F 26.1 °F 26.1 °F 75% 30.26 in 10.0 mi West 8.1 mph - N/A   Scattered Clouds
3:56 AM 33.1 °F 26.1 °F 27.0 °F 78% 30.26 in 10.0 mi WNW 8.1 mph - N/A   Scattered Clouds
4:56 AM 34.0 °F 28.0 °F 26.1 °F 73% 30.26 in 10.0 mi NW 6.9 mph - N/A   Mostly Cloudy
5:56 AM 36.0 °F 29.6 °F 28.9 °F 76% 30.27 in 10.0 mi North 8.1 mph - N/A   Partly Cloudy
6:56 AM 37.0 °F 28.9 °F 26.1 °F 65% 30.29 in 10.0 mi North 12.7 mph - N/A   Mostly Cloudy
7:56 AM 37.0 °F 27.7 °F 27.0 °F 67% 30.32 in 10.0 mi NNE 16.1 mph - N/A   Scattered Clouds
8:56 AM 37.0 °F 25.9 °F 26.1 °F 65% 30.37 in 10.0 mi NNE 23.0 mph 27.6 mph N/A   Mostly Cloudy
9:56 AM 37.0 °F 27.0 °F 24.1 °F 59% 30.40 in 10.0 mi NNE 18.4 mph - N/A   Mostly Cloudy
10:56 AM 36.0 °F 26.7 °F 24.1 °F 62% 30.40 in 10.0 mi NNE 15.0 mph - N/A   Mostly Cloudy
11:56 AM 37.0 °F 26.7 °F 23.0 °F 57% 30.38 in 10.0 mi North 19.6 mph - N/A   Mostly Cloudy
12:56 PM 37.0 °F 27.7 °F 23.0 °F 57% 30.36 in 10.0 mi North 16.1 mph 21.9 mph N/A   Scattered Clouds
1:56 PM 37.0 °F 28.9 °F 21.9 °F 54% 30.34 in 10.0 mi North 12.7 mph - N/A   Scattered Clouds
2:56 PM 37.0 °F 29.3 °F 21.0 °F 52% 30.35 in 10.0 mi North 11.5 mph - N/A   Partly Cloudy
3:56 PM 36.0 °F 28.5 °F 19.9 °F 52% 30.35 in 10.0 mi North 10.4 mph - N/A   Scattered Clouds
4:56 PM 33.1 °F 28.7 °F 19.9 °F 59% 30.36 in 10.0 mi NNW 4.6 mph - N/A   Scattered Clouds
5:56 PM 30.9 °F - 21.0 °F 67% 30.38 in 10.0 mi Calm Calm - N/A   Clear
6:56 PM 28.0 °F - 19.9 °F 72% 30.38 in 10.0 mi Calm Calm - N/A   Clear
7:56 PM 28.0 °F - 21.0 °F 75% 30.39 in 10.0 mi Calm Calm - N/A   Clear
8:56 PM 27.0 °F - 21.0 °F 78% 30.38 in 10.0 mi Calm Calm - N/A   Clear
9:56 PM 26.1 °F - 21.0 °F 81% 30.36 in 10.0 mi Calm Calm - N/A   Clear
10:56 PM 28.0 °F 22.8 °F 21.9 °F 78% 30.35 in 10.0 mi SSW 4.6 mph - N/A   Clear
11:56 PM 28.0 °F 21.7 °F 21.0 °F 75% 30.33 in 10.0 mi WSW 5.8 mph - N/A   Clear